Time,TemperatureF,DewpointF,PressureIn,WindDirection,WindDirectionDegrees,WindSpeedMPH,WindSpeedGustMPH,Humidity,HourlyPrecipIn,Conditions,Clouds,dailyrainin,SoftwareType,DateUTC
2013-02-20 00:01:00,35.9,26.4,29.69,SSW,200,1.0,1.0,68,0.00,,,0.00,Wunderground v.1.15,2013-02-20 05:01:00,
2013-02-20 00:06:00,35.8,25.9,29.69,WNW,282,1.0,1.0,67,0.00,,,0.00,Wunderground v.1.15,2013-02-20 05:06:00,
2013-02-20 00:11:00,35.6,25.7,29.69,WNW,282,1.0,1.0,67,0.00,,,0.00,Wunderground v.1.15,2013-02-20 05:11:00,
2013-02-20 00:16:00,35.3,25.4,29.69,West,281,1.0,1.0,67,0.00,,,0.00,Wunderground v.1.15,2013-02-20 05:16:00,
2013-02-20 00:21:00,35.2,25.3,29.69,WNW,302,1.0,1.0,67,0.00,,,0.00,Wunderground v.1.15,2013-02-20 05:21:00,
2013-02-20 00:26:00,35.0,25.1,29.69,West,281,1.0,1.0,67,0.00,,,0.00,Wunderground v.1.15,2013-02-20 05:26:00,
2013-02-20 00:31:00,34.9,25.0,29.69,WNW,293,1.0,1.0,67,0.00,,,0.00,Wunderground v.1.15,2013-02-20 05:31:00,
2013-02-20 00:36:00,34.9,24.7,29.69,West,280,1.0,6.0,66,0.00,,,0.00,Wunderground v.1.15,2013-02-20 05:36:00,
2013-02-20 00:46:00,34.6,24.4,29.69,West,279,2.0,2.0,66,0.00,,,0.00,Wunderground v.1.15,2013-02-20 05:46:00,
2013-02-20 00:51:00,34.6,24.4,29.69,West,280,3.0,3.0,66,0.00,,,0.00,Wunderground v.1.15,2013-02-20 05:51:00,
2013-02-20 00:56:00,34.6,24.0,29.69,West,272,4.0,4.0,65,0.00,,,0.00,Wunderground v.1.15,2013-02-20 05:56:00,
2013-02-20 01:01:00,34.6,24.0,29.69,North,355,4.0,6.0,65,0.00,,,0.00,Wunderground v.1.15,2013-02-20 06:01:00,
2013-02-20 01:06:00,34.6,23.7,29.69,WNW,296,4.0,6.0,64,0.00,,,0.00,Wunderground v.1.15,2013-02-20 06:06:00,
2013-02-20 01:11:00,34.6,23.3,29.69,WNW,301,3.0,3.0,63,0.00,,,0.00,Wunderground v.1.15,2013-02-20 06:11:00,
2013-02-20 01:21:00,34.6,22.5,29.70,WNW,303,3.0,4.0,61,0.00,,,0.00,Wunderground v.1.15,2013-02-20 06:21:00,
2013-02-20 01:26:00,34.4,21.5,29.70,WNW,297,3.0,4.0,59,0.00,,,0.00,Wunderground v.1.15,2013-02-20 06:26:00,
2013-02-20 01:31:00,34.3,21.4,29.70,WNW,295,4.0,4.0,59,0.00,,,0.00,Wunderground v.1.15,2013-02-20 06:31:00,
2013-02-20 01:36:00,34.3,21.0,29.70,WNW,296,3.0,5.0,58,0.00,,,0.00,Wunderground v.1.15,2013-02-20 06:36:00,
2013-02-20 01:41:00,34.1,20.9,29.70,WNW,294,2.0,2.0,58,0.00,,,0.00,Wunderground v.1.15,2013-02-20 06:41:00,
2013-02-20 01:46:00,34.0,20.8,29.71,NW,325,2.0,2.0,58,0.00,,,0.00,Wunderground v.1.15,2013-02-20 06:46:00,
2013-02-20 01:51:00,33.8,20.6,29.71,NW,323,1.0,1.0,58,0.00,,,0.00,Wunderground v.1.15,2013-02-20 06:51:00,
2013-02-20 02:01:00,33.5,20.3,29.72,West,274,1.0,1.0,58,0.00,,,0.00,Wunderground v.1.15,2013-02-20 07:01:00,
2013-02-20 02:06:00,33.2,20.0,29.72,WNW,295,2.0,2.0,58,0.00,,,0.00,Wunderground v.1.15,2013-02-20 07:06:00,
2013-02-20 02:11:00,33.1,19.9,29.72,NNW,348,2.0,2.0,58,0.00,,,0.00,Wunderground v.1.15,2013-02-20 07:11:00,
2013-02-20 02:16:00,32.9,19.7,29.72,NNW,338,2.0,5.0,58,0.00,,,0.00,Wunderground v.1.15,2013-02-20 07:16:00,
2013-02-20 02:21:00,32.8,19.2,29.72,NW,322,3.0,4.0,57,0.00,,,0.00,Wunderground v.1.15,2013-02-20 07:21:00,
2013-02-20 02:26:00,32.8,19.2,29.72,West,277,3.0,5.0,57,0.00,,,0.00,Wunderground v.1.15,2013-02-20 07:26:00,
2013-02-20 02:36:00,32.5,18.5,29.72,West,261,2.0,7.0,56,0.00,,,0.00,Wunderground v.1.15,2013-02-20 07:36:00,
2013-02-20 02:41:00,32.4,18.4,29.72,WNW,290,1.0,1.0,56,0.00,,,0.00,Wunderground v.1.15,2013-02-20 07:41:00,
2013-02-20 02:46:00,32.1,18.2,29.72,West,279,1.0,1.0,56,0.00,,,0.00,Wunderground v.1.15,2013-02-20 07:46:00,
2013-02-20 02:51:00,31.9,18.0,29.72,West,277,0.0,1.0,56,0.00,,,0.00,Wunderground v.1.15,2013-02-20 07:51:00,
2013-02-20 02:56:00,31.6,17.7,29.72,West,277,0.0,1.0,56,0.00,,,0.00,Wunderground v.1.15,2013-02-20 07:56:00,
2013-02-20 03:01:00,31.3,17.8,29.72,West,279,0.0,0.0,57,0.00,,,0.00,Wunderground v.1.15,2013-02-20 08:01:00,
2013-02-20 03:11:00,31.0,17.5,29.72,WNW,294,0.0,0.0,57,0.00,,,0.00,Wunderground v.1.15,2013-02-20 08:11:00,
2013-02-20 03:16:00,30.9,17.4,29.72,WNW,302,1.0,1.0,57,0.00,,,0.00,Wunderground v.1.15,2013-02-20 08:16:00,
2013-02-20 03:21:00,30.9,17.8,29.72,West,279,1.0,1.0,58,0.00,,,0.00,Wunderground v.1.15,2013-02-20 08:21:00,
2013-02-20 03:26:00,30.7,17.7,29.72,West,261,1.0,1.0,58,0.00,,,0.00,Wunderground v.1.15,2013-02-20 08:26:00,
2013-02-20 03:31:00,30.7,17.7,29.72,West,261,1.0,1.0,58,0.00,,,0.00,Wunderground v.1.15,2013-02-20 08:31:00,
2013-02-20 03:36:00,30.7,17.7,29.72,WSW,255,0.0,1.0,58,0.00,,,0.00,Wunderground v.1.15,2013-02-20 08:36:00,
2013-02-20 03:41:00,30.7,17.7,29.72,WSW,255,0.0,1.0,58,0.00,,,0.00,Wunderground v.1.15,2013-02-20 08:41:00,
2013-02-20 03:51:00,30.6,18.0,29.72,North,351,1.0,2.0,59,0.00,,,0.00,Wunderground v.1.15,2013-02-20 08:51:00,
2013-02-20 03:56:00,30.7,18.1,29.72,NNW,331,1.0,2.0,59,0.00,,,0.00,Wunderground v.1.15,2013-02-20 08:56:00,
2013-02-20 04:01:00,30.7,18.1,29.73,WNW,300,1.0,1.0,59,0.00,,,0.00,Wunderground v.1.15,2013-02-20 09:01:00,
2013-02-20 04:06:00,31.0,17.9,29.73,WNW,300,2.0,2.0,58,0.00,,,0.00,Wunderground v.1.15,2013-02-20 09:06:00,
2013-02-20 04:11:00,31.2,18.1,29.73,NW,313,2.0,2.0,58,0.00,,,0.00,Wunderground v.1.15,2013-02-20 09:11:00,
2013-02-20 04:16:00,31.3,18.2,29.73,WNW,296,1.0,2.0,58,0.00,,,0.00,Wunderground v.1.15,2013-02-20 09:16:00,
2013-02-20 04:26:00,31.5,18.0,29.73,WSW,258,2.0,2.0,57,0.00,,,0.00,Wunderground v.1.15,2013-02-20 09:26:00,
2013-02-20 04:31:00,31.5,18.0,29.74,West,268,2.0,2.0,57,0.00,,,0.00,Wunderground v.1.15,2013-02-20 09:31:00,
2013-02-20 04:36:00,31.6,18.1,29.74,NNW,327,3.0,3.0,57,0.00,,,0.00,Wunderground v.1.15,2013-02-20 09:36:00,
2013-02-20 04:41:00,31.8,17.9,29.74,WSW,253,2.0,2.0,56,0.00,,,0.00,Wunderground v.1.15,2013-02-20 09:41:00,
2013-02-20 04:46:00,31.8,17.9,29.74,West,271,2.0,2.0,56,0.00,,,0.00,Wunderground v.1.15,2013-02-20 09:46:00,
2013-02-20 04:51:00,31.9,18.0,29.74,WNW,285,3.0,5.0,56,0.00,,,0.00,Wunderground v.1.15,2013-02-20 09:51:00,
2013-02-20 04:56:00,31.9,18.0,29.74,WNW,287,4.0,5.0,56,0.00,,,0.00,Wunderground v.1.15,2013-02-20 09:56:00,
2013-02-20 05:06:00,31.8,17.5,29.74,NW,306,3.0,8.0,55,0.00,,,0.00,Wunderground v.1.15,2013-02-20 10:06:00,
2013-02-20 05:11:00,31.6,17.3,29.74,NW,321,3.0,3.0,55,0.00,,,0.00,Wunderground v.1.15,2013-02-20 10:11:00,
2013-02-20 05:16:00,31.5,17.2,29.76,NW,321,3.0,3.0,55,0.00,,,0.00,Wunderground v.1.15,2013-02-20 10:16:00,
2013-02-20 05:21:00,31.3,17.0,29.76,NNW,333,3.0,3.0,55,0.00,,,0.00,Wunderground v.1.15,2013-02-20 10:21:00,
2013-02-20 05:26:00,31.0,16.3,29.76,NW,317,3.0,3.0,54,0.00,,,0.00,Wunderground v.1.15,2013-02-20 10:26:00,
2013-02-20 05:31:00,30.9,16.2,29.76,NNW,330,3.0,3.0,54,0.00,,,0.00,Wunderground v.1.15,2013-02-20 10:31:00,
2013-02-20 05:36:00,30.7,16.0,29.76,West,276,2.0,3.0,54,0.00,,,0.00,Wunderground v.1.15,2013-02-20 10:36:00,
2013-02-20 05:46:00,30.3,15.6,29.77,West,277,3.0,5.0,54,0.00,,,0.00,Wunderground v.1.15,2013-02-20 10:46:00,
2013-02-20 05:51:00,30.1,15.4,29.77,NW,306,2.0,2.0,54,0.00,,,0.00,Wunderground v.1.15,2013-02-20 10:51:00,
2013-02-20 05:56:00,29.8,15.2,29.77,NNW,340,2.0,2.0,54,0.00,,,0.00,Wunderground v.1.15,2013-02-20 10:56:00,
2013-02-20 06:01:00,29.8,15.2,29.77,NNW,340,2.0,2.0,54,0.00,,,0.00,Wunderground v.1.15,2013-02-20 11:01:00,
2013-02-20 06:06:00,29.7,15.1,29.77,WNW,282,2.0,2.0,54,0.00,,,0.00,Wunderground v.1.15,2013-02-20 11:06:00,
2013-02-20 06:11:00,29.5,14.9,29.77,West,266,1.0,1.0,54,0.00,,,0.00,Wunderground v.1.15,2013-02-20 11:11:00,
2013-02-20 06:21:00,29.3,15.1,29.77,WNW,302,1.0,1.0,55,0.00,,,0.00,Wunderground v.1.15,2013-02-20 11:21:00,
2013-02-20 06:31:00,29.1,14.9,29.78,North,350,1.0,1.0,55,0.00,,,0.00,Wunderground v.1.15,2013-02-20 11:31:00,
2013-02-20 06:36:00,29.1,14.9,29.78,North,355,2.0,2.0,55,0.00,,,0.00,Wunderground v.1.15,2013-02-20 11:36:00,
2013-02-20 06:41:00,29.1,14.9,29.78,NNE,16,3.0,3.0,55,0.00,,,0.00,Wunderground v.1.15,2013-02-20 11:41:00,
2013-02-20 06:46:00,29.0,14.8,29.79,NNW,348,2.0,3.0,55,0.00,,,0.00,Wunderground v.1.15,2013-02-20 11:46:00,
2013-02-20 06:51:00,29.0,15.2,29.79,ENE,67,2.0,2.0,56,0.00,,,0.00,Wunderground v.1.15,2013-02-20 11:51:00,
2013-02-20 06:56:00,28.8,15.1,29.79,WNW,299,0.0,2.0,56,0.00,,,0.00,Wunderground v.1.15,2013-02-20 11:56:00,
2013-02-20 07:06:00,28.7,15.0,29.80,North,360,2.0,5.0,56,0.00,,,0.00,Wunderground v.1.15,2013-02-20 12:06:00,
2013-02-20 07:11:00,28.7,15.0,29.80,NNW,327,1.0,1.0,56,0.00,,,0.00,Wunderground v.1.15,2013-02-20 12:11:00,
2013-02-20 07:16:00,28.7,15.0,29.80,NW,315,2.0,2.0,56,0.00,,,0.00,Wunderground v.1.15,2013-02-20 12:16:00,
2013-02-20 07:21:00,28.8,15.1,29.80,NW,309,3.0,8.0,56,0.00,,,0.00,Wunderground v.1.15,2013-02-20 12:21:00,
2013-02-20 07:26:00,28.8,14.6,29.80,WNW,299,4.0,8.0,55,0.00,,,0.00,Wunderground v.1.15,2013-02-20 12:26:00,
2013-02-20 07:31:00,29.0,14.8,29.81,WNW,292,4.0,4.0,55,0.00,,,0.00,Wunderground v.1.15,2013-02-20 12:31:00,
2013-02-20 07:36:00,29.0,14.8,29.81,NNW,333,3.0,4.0,55,0.00,,,0.00,Wunderground v.1.15,2013-02-20 12:36:00,
2013-02-20 07:46:00,29.1,15.3,29.82,NW,311,2.0,2.0,56,0.00,,,0.00,Wunderground v.1.15,2013-02-20 12:46:00,
2013-02-20 07:51:00,29.3,15.5,29.82,NW,305,2.0,2.0,56,0.00,,,0.00,Wunderground v.1.15,2013-02-20 12:51:00,
2013-02-20 07:56:00,29.4,15.6,29.82,NW,309,1.0,4.0,56,0.00,,,0.00,Wunderground v.1.15,2013-02-20 12:56:00,
2013-02-20 08:01:00,29.4,16.0,29.82,NW,319,2.0,2.0,57,0.00,,,0.00,Wunderground v.1.15,2013-02-20 13:01:00,